TKY57M BIAR-ENSB

Flight info

Callsign TKY57M
Flight time N/A
Altitude 35000
Route UTISU DCT 70N012W 75N000E/N0457F350 DCT INPAR
Aircraft A320/M-SDE3FGHIRWY/LB1

Departure

Time 2026-05-09 17:49
Airport Akureyri International Airport (BIAR)

Arrival

Time N/A
Airport Svalbard Airport, Longyear (ENSB)
Time Latitude Longitude Altitude Speed Heading
2026-05-09 16:42 65.65491 -18.07486 18 ft 0 kts 12°
2026-05-09 17:27 65.65497 -18.07482 17 ft 3 kts 12°
2026-05-09 17:42 65.65499 -18.07474 17 ft 1 kts 47°
2026-05-09 17:43 65.65496 -18.07464 17 ft 0 kts 98°
2026-05-09 17:43 65.65488 -18.07438 19 ft 4 kts 121°
2026-05-09 17:43 65.65481 -18.07407 19 ft 0 kts 112°
2026-05-09 17:44 65.65479 -18.07394 18 ft 5 kts 110°
2026-05-09 17:44 65.65466 -18.07181 16 ft 15 kts 146°
2026-05-09 17:44 65.65366 -18.07150 15 ft 13 kts 175°
2026-05-09 17:44 65.65281 -18.07133 15 ft 12 kts 175°
2026-05-09 17:45 65.65202 -18.07118 15 ft 10 kts 175°
2026-05-09 17:45 65.65150 -18.07108 18 ft 5 kts 175°
2026-05-09 17:45 65.65128 -18.07104 18 ft 1 kts 175°
2026-05-09 17:45 65.65101 -18.07099 19 ft 7 kts 175°
2026-05-09 17:46 65.65024 -18.07084 18 ft 15 kts 175°
2026-05-09 17:46 65.64914 -18.07063 21 ft 16 kts 175°
2026-05-09 17:46 65.64805 -18.07042 17 ft 16 kts 175°
2026-05-09 17:46 65.64733 -18.07029 16 ft 15 kts 175°
2026-05-09 17:47 65.64593 -18.07001 14 ft 14 kts 175°
2026-05-09 17:47 65.64511 -18.06964 17 ft 10 kts 150°
2026-05-09 17:47 65.64473 -18.06957 17 ft 2 kts 257°
2026-05-09 17:47 65.64484 -18.06976 18 ft 2 kts 330°
2026-05-09 17:48 65.64501 -18.06983 21 ft 5 kts 352°
2026-05-09 17:48 65.64509 -18.06984 21 ft 0 kts 355°
2026-05-09 17:48 65.64560 -18.06994 16 ft 29 kts 355°
2026-05-09 17:48 65.65018 -18.07082 19 ft 99 kts 355°
2026-05-09 17:49 65.65894 -18.07251 46 ft 149 kts 355°
2026-05-09 17:49 65.66955 -18.07485 603 ft 158 kts 353°
2026-05-09 17:49 65.68069 -18.07819 1204 ft 164 kts 353°
2026-05-09 17:49 65.69254 -18.08172 1607 ft 182 kts 354°
2026-05-09 17:50 65.70587 -18.08550 1912 ft 203 kts 353°
2026-05-09 17:50 65.73726 -18.09421 2874 ft 246 kts 354°
2026-05-09 17:50 65.75455 -18.09894 3661 ft 253 kts 353°
2026-05-09 17:51 65.77199 -18.10367 4500 ft 257 kts 352°
2026-05-09 17:51 65.78996 -18.10854 5348 ft 261 kts 351°
2026-05-09 17:51 65.80816 -18.11343 6246 ft 263 kts 350°
2026-05-09 17:51 65.82653 -18.11578 7129 ft 269 kts
2026-05-09 17:52 65.84406 -18.09844 7954 ft 281 kts 35°
2026-05-09 17:52 65.85574 -18.05962 8767 ft 294 kts 68°
2026-05-09 17:52 65.85950 -18.00988 9604 ft 301 kts 81°
2026-05-09 17:52 65.86153 -17.95854 10370 ft 305 kts 82°
2026-05-09 17:53 65.86325 -17.90515 10683 ft 327 kts 82°
2026-05-09 17:53 65.86503 -17.84853 10860 ft 350 kts 82°
2026-05-09 17:53 65.86697 -17.78755 11179 ft 367 kts 82°
2026-05-09 17:53 65.86899 -17.72479 11760 ft 373 kts 82°
2026-05-09 17:54 65.87110 -17.66087 12386 ft 378 kts 82°
2026-05-09 17:54 65.87327 -17.59630 13027 ft 382 kts 81°
2026-05-09 17:54 65.87549 -17.53177 13632 ft 387 kts 81°
2026-05-09 17:54 65.87970 -17.46684 14222 ft 387 kts 69°
2026-05-09 17:55 65.88941 -17.40605 14784 ft 382 kts 56°
2026-05-09 17:55 65.90410 -17.35241 15399 ft 376 kts 43°
2026-05-09 17:55 65.92276 -17.30832 16026 ft 369 kts 31°
2026-05-09 17:55 65.94427 -17.27542 16614 ft 363 kts 19°
2026-05-09 17:56 65.96740 -17.25058 17214 ft 363 kts 16°
2026-05-09 17:56 65.99068 -17.22579 17797 ft 365 kts 17°
2026-05-09 17:56 66.01404 -17.20064 18382 ft 368 kts 17°
2026-05-09 17:57 66.06117 -17.14957 19401 ft 372 kts 16°
2026-05-09 17:57 66.08489 -17.12390 19915 ft 373 kts 16°
2026-05-09 17:57 66.10842 -17.09837 20410 ft 375 kts 16°
2026-05-09 17:57 66.13233 -17.07237 20904 ft 376 kts 16°
2026-05-09 17:58 66.15668 -17.04585 21396 ft 378 kts 15°
2026-05-09 17:58 66.18078 -17.01951 21875 ft 380 kts 15°
2026-05-09 17:58 66.20470 -16.99336 22349 ft 381 kts 15°
2026-05-09 17:58 66.22901 -16.96674 22806 ft 383 kts 15°
2026-05-09 17:59 66.25343 -16.94001 23256 ft 385 kts 15°
2026-05-09 17:59 66.27794 -16.91304 23699 ft 386 kts 15°
2026-05-09 17:59 66.30263 -16.88578 24107 ft 388 kts 15°
2026-05-09 17:59 66.32736 -16.85841 24459 ft 390 kts 15°
2026-05-09 18:00 66.35226 -16.83080 24812 ft 391 kts 15°
2026-05-09 18:00 66.37714 -16.80313 25234 ft 392 kts 14°
2026-05-09 18:00 66.40198 -16.77546 25613 ft 392 kts 14°
2026-05-09 18:00 66.42697 -16.74759 25971 ft 393 kts 14°
2026-05-09 18:01 66.45197 -16.71962 26316 ft 394 kts 14°
2026-05-09 18:01 66.47680 -16.69177 26650 ft 396 kts 14°
2026-05-09 18:01 66.50227 -16.66318 26983 ft 397 kts 14°
2026-05-09 18:01 66.52721 -16.63516 27298 ft 398 kts 14°
2026-05-09 18:02 66.55259 -16.60655 27610 ft 400 kts 14°
2026-05-09 18:02 66.57806 -16.57781 27905 ft 401 kts 14°
2026-05-09 18:02 66.60360 -16.54890 28206 ft 403 kts 14°
2026-05-09 18:02 66.62923 -16.51985 28496 ft 404 kts 14°
2026-05-09 18:03 66.65489 -16.49071 28780 ft 405 kts 14°
2026-05-09 18:03 66.68063 -16.46139 29058 ft 407 kts 13°
2026-05-09 18:03 66.70624 -16.43214 29369 ft 408 kts 13°
2026-05-09 18:03 66.73211 -16.40246 29666 ft 409 kts 13°
2026-05-09 18:04 66.75795 -16.37268 30074 ft 407 kts 13°
2026-05-09 18:04 66.78368 -16.34293 30462 ft 405 kts 13°
2026-05-09 18:04 66.80929 -16.31326 30787 ft 404 kts 13°
2026-05-09 18:04 66.83491 -16.28357 31140 ft 404 kts 13°
2026-05-09 18:05 66.86045 -16.25393 31424 ft 403 kts 13°
2026-05-09 18:05 66.88598 -16.22428 31701 ft 403 kts 13°
2026-05-09 18:05 66.91162 -16.19449 31968 ft 404 kts 13°
2026-05-09 18:05 66.93717 -16.16471 32231 ft 404 kts 13°
2026-05-09 18:06 66.96276 -16.13478 32493 ft 404 kts 13°
2026-05-09 18:06 66.98805 -16.10513 32751 ft 405 kts 13°
2026-05-09 18:06 67.01364 -16.07511 33012 ft 405 kts 13°
2026-05-09 18:06 67.03928 -16.04495 33267 ft 405 kts 13°
2026-05-09 18:07 67.06497 -16.01473 33525 ft 406 kts 13°
2026-05-09 18:07 67.09059 -15.98443 33781 ft 406 kts 14°
2026-05-09 18:07 67.11624 -15.95395 34042 ft 406 kts 14°
2026-05-09 18:07 67.14193 -15.92339 34293 ft 406 kts 14°
2026-05-09 18:08 67.16769 -15.89274 34507 ft 407 kts 14°
2026-05-09 18:08 67.19339 -15.86200 34706 ft 408 kts 14°
2026-05-09 18:08 67.21914 -15.83115 34891 ft 408 kts 14°
2026-05-09 18:08 67.24499 -15.80015 35084 ft 409 kts 14°
2026-05-09 18:09 67.27048 -15.76944 35234 ft 411 kts 15°
2026-05-09 18:09 67.32254 -15.70655 35304 ft 414 kts 15°
2026-05-09 18:10 67.37492 -15.64308 35277 ft 416 kts 15°
2026-05-09 18:10 67.42742 -15.57905 35273 ft 416 kts 16°
2026-05-09 18:11 67.48002 -15.51459 35270 ft 419 kts 16°
2026-05-09 18:11 67.53252 -15.44994 35268 ft 420 kts 16°
2026-05-09 18:12 67.58533 -15.38443 35271 ft 420 kts 16°
2026-05-09 18:12 67.63818 -15.31856 35259 ft 420 kts 16°
2026-05-09 18:13 67.69102 -15.25257 35263 ft 420 kts 16°
2026-05-09 18:13 67.74384 -15.18617 35264 ft 420 kts 16°
2026-05-09 18:14 67.79661 -15.11951 35278 ft 421 kts 17°
2026-05-09 18:14 67.84956 -15.05248 35268 ft 421 kts 17°
2026-05-09 18:15 67.90222 -14.98546 35252 ft 423 kts 17°
2026-05-09 18:15 67.95525 -14.91746 35237 ft 424 kts 18°
2026-05-09 18:16 68.00841 -14.84904 35230 ft 424 kts 18°
2026-05-09 18:16 68.06168 -14.78030 35228 ft 425 kts 18°
2026-05-09 18:17 68.11449 -14.71145 35229 ft 425 kts 18°
2026-05-09 18:17 68.16761 -14.64179 35220 ft 425 kts 18°
2026-05-09 18:18 68.22086 -14.57164 35227 ft 426 kts 18°
2026-05-09 18:18 68.27417 -14.50133 35254 ft 428 kts 19°
2026-05-09 18:19 68.32763 -14.43027 35225 ft 429 kts 19°
2026-05-09 18:19 68.40803 -14.32254 35217 ft 430 kts 19°
2026-05-09 18:20 68.46135 -14.25077 35216 ft 430 kts 19°
2026-05-09 18:20 68.51517 -14.17815 35217 ft 431 kts 19°
2026-05-09 18:21 68.56885 -14.10537 35219 ft 431 kts 19°
2026-05-09 18:21 68.62250 -14.03196 35245 ft 431 kts 20°
2026-05-09 18:22 68.67622 -13.95781 35233 ft 432 kts 20°
2026-05-09 18:22 68.72960 -13.88369 35231 ft 433 kts 20°
2026-05-09 18:23 68.78363 -13.80861 35241 ft 434 kts 20°
2026-05-09 18:23 68.83759 -13.73338 35229 ft 435 kts 20°
2026-05-09 18:24 68.89159 -13.65741 35223 ft 436 kts 21°
2026-05-09 18:25 68.97235 -13.54304 35221 ft 436 kts 21°
2026-05-09 18:25 69.02649 -13.46591 35237 ft 437 kts 21°
2026-05-09 18:26 69.08063 -13.38809 35234 ft 437 kts 21°
2026-05-09 18:26 69.13493 -13.30986 35225 ft 438 kts 21°
2026-05-09 18:27 69.18884 -13.23190 35227 ft 438 kts 21°
2026-05-09 18:27 69.24303 -13.15283 35258 ft 439 kts 22°
2026-05-09 18:28 69.29731 -13.07318 35237 ft 440 kts 22°
2026-05-09 18:28 69.35157 -12.99302 35224 ft 440 kts 22°
2026-05-09 18:29 69.40594 -12.91239 35235 ft 441 kts 22°
2026-05-09 18:29 69.46005 -12.83157 35228 ft 441 kts 22°
2026-05-09 18:30 69.51449 -12.74998 35214 ft 442 kts 22°
2026-05-09 18:30 69.56894 -12.66803 35215 ft 442 kts 22°
2026-05-09 18:31 69.62334 -12.58575 35217 ft 442 kts 22°
2026-05-09 18:31 69.67775 -12.50265 35218 ft 442 kts 23°
2026-05-09 18:32 69.73179 -12.41946 35230 ft 443 kts 23°
2026-05-09 18:32 69.78616 -12.33522 35230 ft 444 kts 24°
2026-05-09 18:33 69.83185 -12.26438 35221 ft 444 kts 24°
2026-05-09 18:33 69.88635 -12.17943 35204 ft 445 kts 24°
2026-05-09 18:34 69.94050 -12.09422 35206 ft 445 kts 24°
2026-05-09 18:34 69.99500 -12.00768 35200 ft 446 kts 24°
2026-05-09 18:35 70.04907 -11.91809 35199 ft 447 kts 26°
2026-05-09 18:35 70.10274 -11.82560 35186 ft 447 kts 26°
2026-05-09 18:36 70.15627 -11.73209 35196 ft 446 kts 26°
2026-05-09 18:36 70.20901 -11.63999 35170 ft 440 kts 26°
2026-05-09 18:37 70.26170 -11.54818 35160 ft 439 kts 26°
2026-05-09 18:37 70.31486 -11.45518 35163 ft 446 kts 26°
2026-05-09 18:38 70.36830 -11.36069 35166 ft 447 kts 26°
2026-05-09 18:38 70.42137 -11.26601 35164 ft 447 kts 26°
2026-05-09 18:40 70.63479 -10.88003 35188 ft 449 kts 28°
2026-05-09 18:41 70.68821 -10.78193 35174 ft 450 kts 27°
2026-05-09 18:41 70.74177 -10.68337 35163 ft 450 kts 28°
2026-05-09 18:42 70.79529 -10.58405 35144 ft 451 kts 28°
2026-05-09 18:42 70.84845 -10.48448 35143 ft 451 kts 28°
2026-05-09 18:43 70.90182 -10.38390 35141 ft 451 kts 28°
2026-05-09 18:43 70.95515 -10.28280 35140 ft 451 kts 28°
2026-05-09 18:44 71.00852 -10.18090 35124 ft 451 kts 28°
2026-05-09 18:44 71.06178 -10.07841 35121 ft 451 kts 28°
2026-05-09 18:45 71.11505 -9.97556 35136 ft 451 kts 28°
2026-05-09 18:45 71.16796 -9.87280 35110 ft 452 kts 28°
2026-05-09 18:46 71.22112 -9.76866 35109 ft 452 kts 28°
2026-05-09 18:46 71.27425 -9.66396 35108 ft 452 kts 28°
2026-05-09 18:47 71.32725 -9.55877 35110 ft 452 kts 29°
2026-05-09 18:47 71.38033 -9.45287 35086 ft 452 kts 30°
2026-05-09 18:48 71.43325 -9.34670 35085 ft 452 kts 29°
2026-05-09 18:48 71.48616 -9.23985 35076 ft 452 kts 29°
2026-05-09 18:49 71.53901 -9.13226 35077 ft 452 kts 29°
2026-05-09 18:49 71.59175 -9.02404 35062 ft 452 kts 29°
2026-05-09 18:50 71.64407 -8.91582 35062 ft 452 kts 30°
2026-05-09 18:50 71.69686 -8.80624 35040 ft 452 kts 30°
2026-05-09 18:51 71.74951 -8.69596 35040 ft 452 kts 31°
2026-05-09 18:51 71.80205 -8.58535 35033 ft 452 kts 31°
2026-05-09 18:52 71.85424 -8.47489 35031 ft 453 kts 31°
2026-05-09 18:52 71.90676 -8.36273 35020 ft 453 kts 31°
2026-05-09 18:53 71.95915 -8.24995 35017 ft 453 kts 31°
2026-05-09 18:53 72.01160 -8.13643 35018 ft 454 kts 31°
2026-05-09 18:54 72.06371 -8.02299 35000 ft 454 kts 32°
2026-05-09 18:54 72.11615 -7.90782 35003 ft 455 kts 32°
2026-05-09 18:55 72.16852 -7.79199 35000 ft 455 kts 32°
2026-05-09 18:55 72.22098 -7.67545 35000 ft 455 kts 32°
2026-05-09 18:56 72.27327 -7.55836 34989 ft 455 kts 32°
2026-05-09 18:56 72.32557 -7.44035 34992 ft 456 kts 32°
2026-05-09 18:57 72.37749 -7.32237 34993 ft 455 kts 32°
2026-05-09 18:57 72.42964 -7.20293 34997 ft 456 kts 33°
2026-05-09 18:58 72.48179 -7.08288 34990 ft 457 kts 33°
2026-05-09 18:58 72.53401 -6.96176 34986 ft 458 kts 34°
2026-05-09 18:59 72.58624 -6.83938 34992 ft 458 kts 34°
2026-05-09 18:59 72.63839 -6.71639 34991 ft 458 kts 34°
2026-05-09 19:00 72.69027 -6.59326 34992 ft 458 kts 34°
2026-05-09 19:00 72.76835 -6.40645 35004 ft 459 kts 34°
2026-05-09 19:01 72.81991 -6.28210 34999 ft 452 kts 34°
2026-05-09 19:01 72.84503 -6.22092 34997 ft 439 kts 34°
2026-05-09 19:01 72.86973 -6.16054 35007 ft 435 kts 35°
2026-05-09 19:02 72.91880 -6.04003 35002 ft 434 kts 35°
2026-05-09 19:02 72.96746 -5.92006 35005 ft 434 kts 35°
2026-05-09 19:03 73.01628 -5.79872 35013 ft 434 kts 35°
2026-05-09 19:03 73.06494 -5.67676 35015 ft 430 kts 35°
2026-05-09 19:04 73.11308 -5.55513 35017 ft 429 kts 35°
2026-05-09 19:04 73.16103 -5.43350 35024 ft 428 kts 35°
2026-05-09 19:05 73.20901 -5.31128 35022 ft 428 kts 35°
2026-05-09 19:05 73.25657 -5.18899 35028 ft 427 kts 35°
2026-05-09 19:06 73.30375 -5.06651 35013 ft 415 kts 36°
2026-05-09 19:06 73.34965 -4.94634 35029 ft 411 kts 36°
2026-05-09 19:07 73.39532 -4.82630 35030 ft 410 kts 36°
2026-05-09 19:07 73.44097 -4.70555 35030 ft 410 kts 36°
2026-05-09 19:08 73.48617 -4.58516 35032 ft 410 kts 36°
2026-05-09 19:08 73.53162 -4.46327 35031 ft 410 kts 36°
2026-05-09 19:09 73.57709 -4.34056 35031 ft 410 kts 37°
2026-05-09 19:09 73.62237 -4.21739 35039 ft 410 kts 37°
2026-05-09 19:10 73.66720 -4.09447 35034 ft 410 kts 37°
2026-05-09 19:10 73.71234 -3.96993 35032 ft 410 kts 37°
2026-05-09 19:11 73.75739 -3.84461 35030 ft 411 kts 37°
2026-05-09 19:11 73.80247 -3.71844 35037 ft 411 kts 37°
2026-05-09 19:12 73.84756 -3.59151 35039 ft 412 kts 37°
2026-05-09 19:12 73.89253 -3.46378 35040 ft 412 kts 38°
2026-05-09 19:13 73.93722 -3.33570 35048 ft 412 kts 38°
2026-05-09 19:13 73.98211 -3.20647 35050 ft 412 kts 38°
2026-05-09 19:14 74.02672 -3.07725 35053 ft 412 kts 38°
2026-05-09 19:14 74.07151 -2.94635 35059 ft 412 kts 38°
2026-05-09 19:15 74.11614 -2.81498 35060 ft 412 kts 38°
2026-05-09 19:15 74.16074 -2.68273 35060 ft 412 kts 38°
2026-05-09 19:16 74.20493 -2.55079 35068 ft 412 kts 38°
2026-05-09 19:16 74.24946 -2.41692 35066 ft 413 kts 39°
2026-05-09 19:17 74.28646 -2.30500 35062 ft 413 kts 39°
2026-05-09 19:17 74.33088 -2.16968 35070 ft 413 kts 39°
2026-05-09 19:18 74.37526 -2.03378 35083 ft 413 kts 39°
2026-05-09 19:18 74.41947 -1.89701 35084 ft 413 kts 39°
2026-05-09 19:19 74.46330 -1.76042 35086 ft 413 kts 39°
2026-05-09 19:19 74.50731 -1.62208 35103 ft 413 kts 40°
2026-05-09 19:20 74.55139 -1.48268 35107 ft 413 kts 40°
2026-05-09 19:20 74.59530 -1.34269 35108 ft 413 kts 40°
2026-05-09 19:21 74.63893 -1.20239 35118 ft 413 kts 40°
2026-05-09 19:21 74.68266 -1.06093 35119 ft 413 kts 40°
2026-05-09 19:22 74.72594 -0.91949 35121 ft 413 kts 40°
2026-05-09 19:22 74.76944 -0.77642 35121 ft 413 kts 40°
2026-05-09 19:23 74.81281 -0.63311 35136 ft 413 kts 40°
2026-05-09 19:23 74.85616 -0.48898 35135 ft 413 kts 41°
2026-05-09 19:24 74.89913 -0.34449 35130 ft 413 kts 41°
2026-05-09 19:24 74.94221 -0.19836 35130 ft 413 kts 41°
2026-05-09 19:25 74.98521 -0.05111 35133 ft 413 kts 41°
2026-05-09 19:25 75.02713 0.09927 35127 ft 413 kts 44°
2026-05-09 19:26 75.06818 0.25646 35156 ft 419 kts 45°
2026-05-09 19:26 75.10983 0.42072 35153 ft 433 kts 45°
2026-05-09 19:27 75.15278 0.59101 35159 ft 447 kts 45°
2026-05-09 19:27 75.19671 0.76553 35159 ft 459 kts 45°
2026-05-09 19:28 75.24172 0.94585 35169 ft 463 kts 46°
2026-05-09 19:28 75.28668 1.12772 35168 ft 464 kts 46°
2026-05-09 19:29 75.33150 1.31080 35174 ft 464 kts 46°
2026-05-09 19:29 75.37591 1.49381 35175 ft 464 kts 46°
2026-05-09 19:30 75.42039 1.67905 35180 ft 464 kts 46°
2026-05-09 19:30 75.46480 1.86610 35184 ft 464 kts 47°
2026-05-09 19:31 75.50909 2.05399 35198 ft 464 kts 47°
2026-05-09 19:31 75.55329 2.24280 35200 ft 465 kts 47°
2026-05-09 19:32 75.59710 2.43190 35208 ft 465 kts 47°
2026-05-09 19:32 75.64095 2.62293 35217 ft 465 kts 47°
2026-05-09 19:33 75.68463 2.81561 35217 ft 465 kts 48°
2026-05-09 19:33 75.72813 3.00955 35215 ft 465 kts 48°
2026-05-09 19:34 75.77155 3.20410 35231 ft 465 kts 48°
2026-05-09 19:34 75.81466 3.39871 35227 ft 466 kts 49°
2026-05-09 19:35 75.85793 3.59648 35228 ft 466 kts 49°
2026-05-09 19:35 75.90092 3.79578 35239 ft 467 kts 49°
2026-05-09 19:36 75.94359 3.99521 35241 ft 467 kts 49°
2026-05-09 19:36 75.98636 4.19651 35245 ft 467 kts 49°
2026-05-09 19:37 76.02902 4.39936 35244 ft 467 kts 50°
2026-05-09 19:37 76.07149 4.60366 35260 ft 467 kts 50°
2026-05-09 19:38 76.11380 4.80882 35260 ft 467 kts 50°
2026-05-09 19:38 76.15576 5.01430 35264 ft 467 kts 50°
2026-05-09 19:39 76.19765 5.22186 35270 ft 467 kts 50°
2026-05-09 19:39 76.23942 5.43093 35267 ft 466 kts 51°
2026-05-09 19:40 76.28087 5.64060 35264 ft 466 kts 51°
2026-05-09 19:40 76.32225 5.85154 35268 ft 466 kts 51°
2026-05-09 19:41 76.36346 6.06427 35269 ft 466 kts 51°
2026-05-09 19:41 76.40416 6.27624 35266 ft 466 kts 51°
2026-05-09 19:42 76.44497 6.49106 35271 ft 466 kts 52°
2026-05-09 19:42 76.48561 6.70739 35271 ft 467 kts 52°
2026-05-09 19:43 76.52607 6.92518 35272 ft 467 kts 52°
2026-05-09 19:43 76.56636 7.14405 35281 ft 466 kts 52°
2026-05-09 19:44 76.60617 7.36287 35282 ft 467 kts 52°
2026-05-09 19:44 76.64608 7.58453 35284 ft 467 kts 52°
2026-05-09 19:45 76.68577 7.80736 35292 ft 467 kts 53°
2026-05-09 19:45 76.72535 8.03166 35293 ft 467 kts 53°
2026-05-09 19:46 76.76485 8.25734 35295 ft 467 kts 53°
2026-05-09 19:46 76.80380 8.48293 35302 ft 467 kts 53°
2026-05-09 19:47 76.84274 8.71120 35303 ft 467 kts 53°
2026-05-09 19:47 76.88154 8.94103 35303 ft 467 kts 54°
2026-05-09 19:48 76.91980 9.17079 35303 ft 467 kts 54°
2026-05-09 19:48 76.95812 9.40327 35304 ft 467 kts 54°
2026-05-09 19:49 76.99625 9.63616 35302 ft 467 kts 54°
2026-05-09 19:49 77.03416 9.87039 35301 ft 466 kts 54°
2026-05-09 19:50 77.07174 10.10607 35310 ft 466 kts 54°
2026-05-09 19:50 77.09041 10.22425 34977 ft 463 kts 54°
2026-05-09 19:50 77.10896 10.34252 34319 ft 463 kts 55°
2026-05-09 19:51 77.12746 10.46110 33507 ft 463 kts 55°
2026-05-09 19:51 77.14591 10.57979 32682 ft 464 kts 55°
2026-05-09 19:51 77.16416 10.69774 31883 ft 465 kts 55°
2026-05-09 19:51 77.18262 10.81769 31054 ft 466 kts 55°
2026-05-09 19:52 77.20101 10.93803 30204 ft 467 kts 55°
2026-05-09 19:52 77.21937 11.05896 29379 ft 464 kts 55°
2026-05-09 19:52 77.23749 11.17880 28669 ft 459 kts 55°
2026-05-09 19:52 77.25535 11.29760 27968 ft 454 kts 55°
2026-05-09 19:53 77.27302 11.41568 27307 ft 450 kts 56°
2026-05-09 19:53 77.29048 11.53292 26656 ft 446 kts 56°
2026-05-09 19:53 77.30776 11.64982 26019 ft 442 kts 56°
2026-05-09 19:53 77.32474 11.76563 25401 ft 438 kts 56°
2026-05-09 19:54 77.34138 11.87962 24814 ft 434 kts 56°
2026-05-09 19:54 77.35799 11.99388 24288 ft 429 kts 56°
2026-05-09 19:54 77.37409 12.10548 24077 ft 407 kts 56°
2026-05-09 19:54 77.38908 12.21003 23945 ft 381 kts 56°
2026-05-09 19:55 77.40326 12.30922 23548 ft 364 kts 56°
2026-05-09 19:55 77.41695 12.40532 22867 ft 357 kts 56°
2026-05-09 19:55 77.43035 12.49999 22158 ft 351 kts 56°
2026-05-09 19:56 77.45651 12.68623 20763 ft 342 kts 56°
2026-05-09 19:56 77.46929 12.77784 20093 ft 338 kts 56°
2026-05-09 19:56 77.48173 12.86769 19453 ft 334 kts 56°
2026-05-09 19:56 77.49434 12.95684 18825 ft 329 kts 51°
2026-05-09 19:57 77.51102 13.02622 18174 ft 320 kts 27°
2026-05-09 19:57 77.53171 13.05784 17499 ft 311 kts
2026-05-09 19:57 77.55283 13.04729 16831 ft 303 kts 338°
2026-05-09 19:57 77.57057 12.99718 16175 ft 297 kts 313°
2026-05-09 19:58 77.58296 12.92130 15504 ft 294 kts 302°
2026-05-09 19:58 77.59378 12.84086 14846 ft 293 kts 300°
2026-05-09 19:58 77.60423 12.76122 14268 ft 291 kts 300°
2026-05-09 19:58 77.61466 12.68107 13624 ft 288 kts 300°
2026-05-09 19:59 77.62497 12.60112 12980 ft 285 kts 300°
2026-05-09 19:59 77.63509 12.52194 12354 ft 282 kts 300°
2026-05-09 19:59 77.64504 12.44334 11727 ft 279 kts 300°
2026-05-09 19:59 77.65481 12.36539 11131 ft 276 kts 300°
2026-05-09 20:00 77.66442 12.28805 10534 ft 273 kts 300°
2026-05-09 20:00 77.67400 12.21176 10326 ft 273 kts 300°
2026-05-09 20:00 77.68369 12.13481 10314 ft 274 kts 300°
2026-05-09 20:00 77.69314 12.05701 10321 ft 276 kts 294°
2026-05-09 20:01 77.69690 11.97008 10313 ft 273 kts 266°
2026-05-09 20:01 77.69155 11.88523 10314 ft 275 kts 239°
2026-05-09 20:01 77.68008 11.81447 10315 ft 277 kts 231°
2026-05-09 20:01 77.66727 11.74543 10315 ft 277 kts 230°
2026-05-09 20:02 77.65881 11.70053 10315 ft 277 kts 230°
2026-05-09 20:02 77.64189 11.61128 10315 ft 277 kts 230°
2026-05-09 20:02 77.62909 11.54410 10315 ft 277 kts 229°
2026-05-09 20:03 77.60769 11.43221 10315 ft 277 kts 229°
2026-05-09 20:03 77.59484 11.36535 10315 ft 277 kts 229°
2026-05-09 20:03 77.58196 11.29852 10315 ft 277 kts 229°
2026-05-09 20:03 77.56910 11.23199 10315 ft 277 kts 229°
2026-05-09 20:04 77.55619 11.16544 10315 ft 277 kts 229°
2026-05-09 20:04 77.54329 11.09909 10315 ft 277 kts 229°
2026-05-09 20:04 77.53034 11.03281 10314 ft 277 kts 228°
2026-05-09 20:04 77.51501 10.97885 10314 ft 279 kts 206°